"Pseudo-MPEC" for Hayabusa

Created 2016 Jul 18 3:02:31 UT using Find_Orb

Astrometry:
Hayabusa      C2010 06 13.15366 08 54 02.12 +28 00 18.1          20.6 R      926
Hayabusa      C2010 06 13.15602 08 54 03.66 +27 59 08.2          19.5 R      926
Hayabusa      C2010 06 13.15837 08 54 05.28 +27 57 57.0          19.0 R      926
Hayabusa      C2010 06 13.17596 08 54 24.44 +27 47 01.2         x20.1 V      G96
Hayabusa      C2010 06 13.17655 08 54 25.02 +27 46 43.2          20.8 V      G96
Hayabusa      C2010 06 13.17715 08 54 25.77 +27 46 22.0         x19.3 V      G96
Hayabusa      C2010 06 13.18045 08 54 29.23 +27 44 33.4          19.8 V      G96
Hayabusa      C2010 06 13.18241 08 54 31.42 +27 43 26.5          20.5 V      G96
Hayabusa      C2010 06 13.18285 08 54 31.96 +27 43 13.1          20.4 V      G96
Hayabusa      C2010 06 13.18328 08 54 32.68 +27 42 55.8         x21.4 V      G96
Hayabusa      C2010 06 13.18371 08 54 33.04 +27 42 42.3          20.0 V      G96
Hayabusa      C2010 06 13.18475 08 54 34.37 +27 42 05.1          21.4 V      G96
Hayabusa      C2010 06 13.18562 08 54 35.38 +27 41 35.8          19.7 V      G96
Hayabusa      C2010 06 13.18606 08 54 35.91 +27 41 22.4         x21.4 V      G96
Hayabusa      C2010 06 13.24977108 56 36.63 +28 02 30.9                      Sub
Hayabusa      C2010 06 13.25075808 56 37.09 +28 01 53.1                      Sub
Hayabusa      C2010 06 13.25122908 56 37.31 +28 01 35.2                      Sub
Hayabusa      C2010 06 13.25215008 56 37.76 +28 01 00.1                      Sub
Hayabusa      C2010 06 13.25257108 56 37.97 +28 00 44.0                      Sub
Hayabusa      C2010 06 13.25305008 56 38.23 +28 00 25.0                      Sub
Hayabusa      C2010 06 13.25354208 56 38.48 +28 00 06.5                      Sub
Hayabusa      C2010 06 13.25444208 56 38.98 +27 59 31.2                      Sub
Hayabusa      C2010 06 13.25717708 56 40.529+27 57 43.36         19.1 R      CFH
Hayabusa      C2010 06 13.25819708 56 41.178+27 57 02.29         19.0 R      CFH
Hayabusa      C2010 06 13.25923008 56 41.848+27 56 20.94         19.0 R      CFH

Station data:
(926) Tenagra II Observatory, Nogales (N31.4621 W110.8791)  US/Arizona.  
    Observers M. Schwartz, P. R. Holvorcem.  0.41-m f/3.75 astrograph + CCD.
(CFH) Canada-France-Hawaii Telescope, Mauna Ke (CFHT)  (N19.82533 W155.46887)  US/Hawaii.
     3.6-m Canada-France-Hawaii Telescope.
(G96) Mt. Lemmon Survey (N32.44287 W110.78872)  US/Arizona.   Observers E. J.
    Christensen, A. R. Gibbs, A. D. Grauer, R. E. Hill, J. A. Johnson, R. A.
    Kowalski, S. M. Larson, F. C. Shelly.  1.5-m reflector + CCD.
(Sub) Subaru, Mauna Kea (N19.82558 W155.47601)  US/Hawaii.  Subaru.

Orbital elements:  Hayabusa
   Perigee 2010 Jun 13.581200 +/- 0.00119 TT = 13:56:55 (JD 2455361.081200)
Epoch 2010 Jun 13.0 TT = JDT 2455360.5                        Find_Orb
q  6365.589895 +/- 6.36             (J2000 equatorial)
H   28.6  G 0.15                    Peri.  254.917081 +/- 0.34
                                    Node     7.551320 +/- 0.21
e   1.37359947 +/- 0.00354          Incl.   34.483927 +/- 0.013
21 of 25 observations 2010 June 13 (2.5 hr); mean residual 0".496
IMPACT at 13 Jun 2010 13:55:18.72 lat -32.67412 lon E145.09006
Residuals in arcseconds: 
100613 926 .806- .338-    100613 G96(2.02+ .941-)   100613 Sub .090- .075+    
100613 926 .142+ .360+    100613 G96 .034- .357+    100613 Sub .079+ .411-    
100613 926 .932+ .294+    100613 G96 .872+ .930-    100613 Sub .041- .150+    
100613 G96(1.07+ 2.90-)   100613 G96 .030+ .053-    100613 Sub .115+ .091-    
100613 G96 .575+ 1.28-    100613 G96(.224- 1.86+)   100613 CFH .055- .326+    
100613 G96(2.10+ 2.47-)   100613 Sub .039- 4.7m-    100613 CFH .063+ 5.6m+    
100613 G96 .093- .011+    100613 Sub .035+ .311-    100613 CFH .021+ .213+    
100613 G96 1.04- .090-    100613 Sub .019- .244-    
100613 G96 .754- 1.59+    100613 Sub .051- .036-    

Ephemerides (geocentric):
Date (UTC) HH:MM   RA              Dec         delta   r     elong  mag " sig PA
---- -- -- -----  ------------   ------------  ------ ------ -----  --- ---- ---
2010 06 13 00:00  08 56 10.435   +28 54 24.67  281634 1.0143  47.6 21??  4.3   9
2010 06 13 00:15  08 56 23.673   +28 53 22.45  277030 1.0143  47.6 20??  4.1  12
2010 06 13 00:30  08 56 37.351   +28 52 18.05  272421 1.0143  47.7 20??  3.9  16
2010 06 13 00:45  08 56 51.490   +28 51 11.34  267809 1.0144  47.7 20??  3.8  19
2010 06 13 01:00  08 57 06.117   +28 50 02.20  263192 1.0144  47.8 20??  3.6  23
2010 06 13 01:15  08 57 21.257   +28 48 50.50  258570 1.0144  47.8 20??  3.5  27
2010 06 13 01:30  08 57 36.938   +28 47 36.07  253944 1.0144  47.9 20??  3.3  31
2010 06 13 01:45  08 57 53.190   +28 46 18.77  249314 1.0144  47.9 20??  3.2  34
2010 06 13 02:00  08 58 10.048   +28 44 58.41  244678 1.0145  48.0 20??  3.1  38
2010 06 13 02:15  08 58 27.545   +28 43 34.82  240037 1.0145  48.0 20??  2.9  42
2010 06 13 02:30  08 58 45.720   +28 42 07.78  235392 1.0145  48.1 20??  2.8  46
2010 06 13 02:45  08 59 04.615   +28 40 37.08  230740 1.0145  48.1 20??  2.7  50
2010 06 13 03:00  08 59 24.274   +28 39 02.47  226083 1.0146  48.2 20??  2.5  53
2010 06 13 03:15  08 59 44.745   +28 37 23.70  221420 1.0146  48.3 20??  2.3  57
2010 06 13 03:30  09 00 06.083   +28 35 40.48  216751 1.0146  48.3 20??  2.1  60
2010 06 13 03:45  09 00 28.345   +28 33 52.49  212076 1.0146  48.4 20??  1.9  64
2010 06 13 04:00  09 00 51.593   +28 31 59.39  207393 1.0147  48.5 20??  1.7  67
2010 06 13 04:15  09 01 15.897   +28 30 00.80  202704 1.0147  48.6 20??  1.4  70
2010 06 13 04:30  09 01 41.333   +28 27 56.31  198008 1.0147  48.7 20??  1.0  73
2010 06 13 04:45  09 02 07.984   +28 25 45.45  193304 1.0147  48.8 20??  0.6  77
2010 06 13 05:00  09 02 35.941   +28 23 27.71  188592 1.0147  48.9 20??  0.1 111
2010 06 13 05:15  09 03 05.307   +28 21 02.53  183872 1.0148  49.0 19??  0.5  74
2010 06 13 05:30  09 03 36.194   +28 18 29.27  179142 1.0148  49.1 19??  1.3  79
2010 06 13 05:45  09 04 08.727   +28 15 47.22  174404 1.0148  49.2 19??  2.1  81
2010 06 13 06:00  09 04 43.045   +28 12 55.59  169656 1.0148  49.3 19??  3.1  83
2010 06 13 06:15  09 05 19.304   +28 09 53.50  164898 1.0149  49.4 19??  4.2  85
2010 06 13 06:30  09 05 57.679   +28 06 39.92  160129 1.0149  49.6 19??  5.5  87
2010 06 13 06:45  09 06 38.367   +28 03 13.72  155348 1.0149  49.7 19??  7.1  89
2010 06 13 07:00  09 07 21.591   +27 59 33.59  150556 1.0149  49.9 19??  8.9  90
2010 06 13 07:15  09 08 07.603   +27 55 38.04  145750 1.0150  50.0 19??   11  92
2010 06 13 07:30  09 08 56.692   +27 51 25.36  140931 1.0150  50.2 19??   13  93
2010 06 13 07:45  09 09 49.188   +27 46 53.56  136098 1.0150  50.4 19??   16  94
2010 06 13 08:00  09 10 45.472   +27 42 00.33  131249 1.0150  50.6 19??   19  96
2010 06 13 08:15  09 11 45.984   +27 36 42.98  126383 1.0151  50.8 18??   23  97
2010 06 13 08:30  09 12 51.239   +27 30 58.33  121499 1.0151  51.1 18??   28  98
2010 06 13 08:45  09 14 01.838   +27 24 42.62  116597 1.0151  51.3 18??   34  99
2010 06 13 09:00  09 15 18.494   +27 17 51.33  111673 1.0151  51.6 18??   41 100
2010 06 13 09:15  09 16 42.054   +27 10 19.04  106727 1.0152  52.0 18??   48 101
2010 06 13 09:30  09 18 13.536   +27 01 59.12  101757 1.0152  52.3 18??   58 102
2010 06 13 09:45  09 19 54.175   +26 52 43.45   96760 1.0152  52.7 18??   69 103
2010 06 13 10:00  09 21 45.483   +26 42 21.87   91734 1.0152  53.1 18??   83 104
2010 06 13 10:15  09 23 49.338   +26 30 41.60   86676 1.0153  53.6 17??  101 105
2010 06 13 10:30  09 26 08.098   +26 17 26.25   81582 1.0153  54.1 17??  122 106
2010 06 13 10:45  09 28 44.775   +26 02 14.46   76448 1.0153  54.7 17??  148 107
2010 06 13 11:00  09 31 43.281   +25 44 37.88   71270 1.0153  55.5 17??  182 108
2010 06 13 11:15  09 35 08.802   +25 23 57.96   66042 1.0154  56.3 17??  225 109
2010 06 13 11:30  09 39 08.379   +24 59 20.91   60756 1.0154  57.2 16??  283 110
2010 06 13 11:45  09 43 51.845   +24 29 29.27   55404 1.0154  58.4 16??  360 111
2010 06 13 12:00  09 49 33.407   +23 52 27.17   49975 1.0154  59.8 16??  466 112
2010 06 13 12:15  09 56 34.478   +23 05 12.92   44454 1.0155  61.5 15.7  620 113
2010 06 13 12:30  10 05 29.108   +22 02 44.25   38825 1.0155  63.8 15.3  854 114
2010 06 13 12:45  10 17 15.345   +20 35 58.11   33064 1.0155  66.8 14.7 1231 116
2010 06 13 13:00  10 33 42.098   +18 26 51.61   27141 1.0155  71.1 14.0 1902 118
2010 06 13 13:15  10 58 44.239   +14 53 42.22   21021 1.0156  78.0 13.1 3280 120
2010 06 13 13:30  11 42 54.905   +07 56 28.93   14707 1.0156  90.6 11.8 6851 123
2010 06 13 13:45  13 29 01.635   -09 59 20.14    8599 1.0156 122.0 Sha  336' 123